Location: Palo Alto
(37.4420°N, 122.1420°W)
Time: 15:40:10
(UTC-07:00)

X-37B - Visible Passes

Search period start: 10 August 2020 00:00
Search period end: 20 August 2020 00:00
Orbit: 385 x 388 km, 45.0° (Epoch: 09 August)

Date Brightness Start Highest point End Pass type
(mag) Time Alt. Az. Time Alt. Az. Time Alt. Az.
10 Aug 2.5 21:08:41 10° WNW 21:11:31 28° NNW 21:14:20 10° NE visible
10 Aug 3.5 22:46:18 10° NW 22:47:47 18° NNW 22:47:47 18° NNW visible
11 Aug 3.0 21:47:29 10° NW 21:49:56 20° N 21:51:42 14° NE visible
12 Aug 2.8 20:48:32 10° WNW 20:51:08 23° N 20:53:44 10° NE visible
12 Aug 3.0 22:25:50 10° NW 22:27:50 21° N 22:27:50 21° N visible
13 Aug 2.9 21:27:10 10° NW 21:29:37 20° N 21:31:40 12° NE visible
13 Aug 4.1 23:03:45 10° NW 23:03:55 11° NW 23:03:55 11° NW visible
14 Aug 2.9 20:28:21 10° NW 20:30:48 20° N 20:33:15 10° NE visible
14 Aug 2.4 22:05:15 10° NW 22:07:44 27° N 22:07:44 27° N visible
15 Aug 2.6 21:06:42 10° NW 21:09:17 22° N 21:11:34 12° ENE visible
15 Aug 3.7 22:43:07 10° WNW 22:43:49 15° NW 22:43:49 15° NW visible
16 Aug 1.5 21:44:37 10° NW 21:47:37 40° NNE 21:47:38 40° NNE visible
17 Aug 2.2 20:46:06 10° NW 20:48:55 28° NNE 20:51:30 11° ENE visible
17 Aug 3.1 22:22:34 10° WNW 22:23:46 21° WNW 22:23:46 21° WNW visible
18 Aug 0.6 21:23:59 10° WNW 21:27:08 69° NNE 21:27:39 54° E visible
19 Aug 1.5 20:25:28 10° NW 20:28:30 40° NNE 20:31:30 10° E visible
19 Aug 2.7 22:02:13 10° W 22:03:52 23° WSW 22:03:52 23° WSW visible
